Palmdale - Butte, CA

10:06 PM PST on February 24, 2018 (GMT -0800)
Palmdale - Butte

Weather History for KGXA - August, 2013

Change the Weather History Date:

Sunday, August 4, 2013

  Actual Average (KPMD) Record (KPMD)
Temperature  
Mean Temperature 77 °F -  
Max Temperature 95 °F 99 °F 109 °F (1990)
Min Temperature 59 °F 65 °F 51 °F (1953)
Cooling Degree Days 12    
Growing Degree Days 27 (Base 50)    
Moisture  
Dew Point 27 °F    
Average Humidity 20    
Maximum Humidity 46    
Minimum Humidity 5    
Precipitation  
Precipitation 0.00 in - - ()
Sea Level Pressure  
Sea Level Pressure 29.87 in    
Wind  
Wind Speed 5 mph (WSW)    
Max Wind Speed 18 mph    
Max Gust Speed 25 mph    
Visibility 10 miles    
Events      
Averages and records for this station are not official NWS values.
T = Trace of Precipitation, MM = Missing Value Source: NWS Daily Summary

Daily Weather History Graph

Daily Weather History Graph

Search for Another Location

Airport or City:

Trip Planner

Search our weather history database for the weather conditions in past years. The results will help you decide how hot, cold, wet, or windy it might be!

Date:

Astronomy

Aug. 04, 2013 Rise Set
Actual Time 6:03 AM PDT 7:49 PM PDT
Civil Twilight 5:36 AM PDT 8:16 PM PDT
Nautical Twilight 5:02 AM PDT 8:49 PM PDT
Astronomical Twilight 4:27 AM PDT 9:24 PM PDT
Moon 4:09 AM PDT (8/4) 6:15 PM PDT (8/4)
Length of Visible Light 14h 40m
Length of Day
13h 46m
Waning Crescent, 4% of the Moon is Illuminated
Aug 4
Waning Crescent
Aug 6
New
Aug 14
First Quarter
Aug 20
Full
Aug 28
Last Quarter

Hourly Weather History & Observations

Time (PDT) Temp. Dew Point Humidity Pressure Visibility Wind Dir Wind Speed Gust Speed Precip Events Conditions
12:55 AM 63.7 °F 41.2 °F 44% 29.87 in 10.0 mi SSE 5.8 mph - N/A   Clear
1:55 AM 61.9 °F 40.6 °F 46% 29.88 in 10.0 mi SSW 3.5 mph - N/A   Clear
2:55 AM 61.0 °F 37.9 °F 42% 29.86 in 10.0 mi South 4.6 mph - N/A   Clear
3:55 AM 61.0 °F 31.6 °F 33% 29.86 in 10.0 mi South 4.6 mph - N/A   Partly Cloudy
4:55 AM 60.1 °F 23.7 °F 25% 29.87 in 10.0 mi SE 3.5 mph - N/A   Clear
5:55 AM 59.5 °F 21.4 °F 23% 29.89 in 10.0 mi ESE 3.5 mph - N/A   Mostly Cloudy
6:55 AM 62.8 °F 24.3 °F 23% 29.90 in 10.0 mi South 4.6 mph - N/A   Mostly Cloudy
7:55 AM 71.4 °F 26.4 °F 19% 29.90 in 10.0 mi West 1.2 mph - N/A   Clear
8:55 AM 81.7 °F 25.3 °F 13% 29.90 in 10.0 mi Variable 1.2 mph - N/A   Scattered Clouds
9:55 AM 84.0 °F 23.5 °F 11% 29.91 in 10.0 mi WNW 3.5 mph - N/A   Clear
10:55 AM 88.5 °F 22.6 °F 9% 29.89 in 10.0 mi Variable 5.8 mph - N/A   Clear
11:55 AM 90.1 °F 18.1 °F 7% 29.89 in 10.0 mi North 3.5 mph - N/A   Clear
12:55 PM 92.8 °F 16.7 °F 6% 29.88 in 10.0 mi Variable 2.3 mph - N/A   Clear
1:55 PM 93.7 °F 13.8 °F 5% 29.87 in 10.0 mi West 5.8 mph - N/A   Partly Cloudy
2:55 PM 95.0 °F 13.5 °F 5% 29.85 in 10.0 mi Variable 5.8 mph - N/A   Scattered Clouds
3:55 PM 94.6 °F 16.5 °F 6% 29.83 in 10.0 mi WNW 5.8 mph 15.0 mph N/A   Clear
4:55 PM 93.0 °F 24.4 °F 8% 29.83 in 10.0 mi NW 18.4 mph 25.3 mph N/A   Clear
5:55 PM 90.7 °F 28.6 °F 11% 29.83 in 10.0 mi WNW 16.1 mph 21.9 mph N/A   Clear
6:55 PM 88.2 °F 27.7 °F 11% 29.83 in 10.0 mi NW 11.5 mph - N/A   Clear
7:55 PM 81.9 °F 27.9 °F 14% 29.84 in 10.0 mi NNW 8.1 mph - N/A   Clear
8:55 PM 76.6 °F 33.8 °F 21% 29.86 in 10.0 mi Variable 2.3 mph - N/A   Clear
9:55 PM 72.9 °F 34.3 °F 24% 29.88 in 10.0 mi NNW 4.6 mph - N/A   Clear
10:55 PM 68.2 °F 37.6 °F 33% 29.88 in 10.0 mi WSW 2.3 mph - N/A   Clear
11:55 PM 64.9 °F 33.1 °F 31% 29.89 in 10.0 mi SSE 3.5 mph - N/A   Clear